Regional Weather Roundup
Issued by NWS

Home | Current Version | Previous Version | Graphics & Text | Print | Product List | Glossary On
Versions: 1 2 3 4 5 6 7 8 9 10 11 12 13 14 15 16 17 18 19 20 21 22 23 24 25
000
ASUS45 KCYS 231110
RWRWY

WYOMING REGIONAL WEATHER ROUNDUP
NATIONAL WEATHER SERVICE CHEYENNE WY
500 AM MDT THU MAR 23 2017

NOTE:  "FAIR" INDICATES FEW OR NO CLOUDS BELOW 12,000 FEET
WITH NO SIGNIFICANT WEATHER AND/OR OBSTRUCTIONS TO VISIBILITY.

WYZ001-231200-
YELLOWSTONE NATIONAL PARK

CITY           SKY/WX    TMP DP  RH WIND       PRES   REMARKS
LK YELLOWSTONE   N/A     27  27 100 CALM      29.81F
W YELLOWSTONE  NOT AVBL

$$
WYZ002>013-054>058-071-098>099-231200-
NORTHERN WYOMING

CITY           SKY/WX    TMP DP  RH WIND       PRES   REMARKS
JACKSON        CLOUDY    34  32  93 CALM      29.78S
CODY           MOCLDY    46  35  65 NW9       29.75S
GREYBULL       CLOUDY    48  40  73 W8        29.66F
WORLAND        CLOUDY    48  40  73 NW8       29.68R
SHERIDAN       CLOUDY    46  41  82 W3        29.73F
BUFFALO        LGT RAIN  44  38  79 NW10      29.74F
GILLETTE       MOCLDY    43  42  97 N7        29.70F
HULETT         LGT RAIN  43  41  93 N9        29.72F
NEWCASTLE      FAIR      45  36  70 NW6       29.68F

$$
WYZ014>020-022>026-101>103-231200-
CENTRAL WYOMING

CITY           SKY/WX    TMP DP  RH WIND       PRES   REMARKS
BIG PINEY      LGT SNOW  33  33 100 CALM      29.75F FOG
PINEDALE       LGT SNOW  32  32 100 CALM      29.76F
DUBOIS         CLOUDY    34  30  86 W9        29.75R WCI  26
LANDER         LGT RAIN  41  39  93 E5        29.72F
RIVERTON       CLOUDY    42  40  92 S10       29.75R
CASPER         FAIR      34  34 100 CALM      29.71F
DOUGLAS        FAIR      40  36  86 NW5       29.72S

$$
WYZ021-027>030-104>119-231200-
SOUTHERN WYOMING

CITY           SKY/WX    TMP DP  RH WIND       PRES   REMARKS
EVANSTON       LGT RAIN  35  32  88 N7        29.71S VSB 1/4 WCI  29
KEMMERER       MIX PCPN  32  32 100 N7        29.72F WCI  26
FORT BRIDGER   DRIZZLE   38  38 100 E5        29.72  WCI  35
ROCK SPRINGS   LGT RAIN  37  34  89 S7        29.74F WCI  32
DIXON            N/A     40  34  78 CALM      29.77F
RAWLINS        FAIR      38  32  79 N16       29.76F WCI  29
SARATOGA       FAIR      34  28  80 N8        29.76F WCI  27
LARAMIE        FAIR      29  22  75 SE9       29.79F WCI  20
CHEYENNE       FAIR      41  33  73 NW9       29.73S
TORRINGTON     FAIR      41  35  79 E7        29.69R
PINE BLUFFS    FAIR      32  32 100 CALM      29.71R

$$




USA.gov is the U.S. government's official web portal to all federal, state and local government web resources and services.